Аэропорт
Могилёв (UMOO)

 UMOO / MVQ
ЗЦ Беларусь
Минск (UMMV)
Минск (UMMV)
 53.95490, 30.09510  / 637 ft

 UMOO 251200Z 09002MPS 9999 BKN040 24/12 Q1028 R13/CLRD// NOSIG
 TAF UMOO 250800Z 2509/2518 VRB02MPS 9999 SCT025 TEMPO 2509/2518 08005MPS
AIP UMOO 03-2016
Название сценария Тип сценария Flight Simulator 9 Flight Simulator X Prepar3D v2 Prepar3D v3 Prepar3D v4 xPlane
UMOO Mogilev FS9 бесплатный
UMOO Mogilev xPlane бесплатный

Аэропорт “Могилев”  (IATA: MVQ, ICAO: UMOO) – международный аэропорт одноименного города в Беларуси. Аэропорт Могилева получил статус международного в 1998 году и именно с того времени осуществляет пассажирские перевозки дальнего следования. На территории аэрокомплекса расположены две полосы, которые позволяют самолетам взлетать и садиться. Одна из этих полос имеет длину 2566 метров. Максимальный вес авиалайнера, который может быть обслужен этим аэропортом, составляет 171 тонну.

 

ВПП Размеры, м Hпор, м МПУ взлета/посадки Освещение ВПП ДПРМ БПРМ ILS
13 2566×42 109,5 129° - 485 (UF) 985 (U) 111.10 (IUF)
31 2566×42 188,1 309° - 485 (CO) 485 (C) -

 

На территории аэропорта установлен VOR-маяк с рабочей частотой 116.75, позывной MGL.  

 

Органы управления воздушным движением (ОрВД) аэропорта:

UMOO _TWR - Mahiliou-Tower (approach and aerodrome control) - Могилев -Вышка - 127.100

UMOO _ATIS - Mahiliou-ATIS - Могилев -АТИС - 118.07

 



2019 © VATRUS division (Privacy Policy)